Gold Coast Seaway Observation History
Time Wind Speed Temp Pressure Rel. Hum Rain
12/08:30pm NW 4 kts 23.5°c 1011.2 hPa 100% 0.0mm
12/08:00pm NW 1-3 kts 23.6°c 1011.2 hPa 100% 0.0mm
12/07:30pm N 8-12 kts 23.8°c 1010.7 hPa 100% 0.0mm
12/07:00pm NNW 8-12 kts 24.2°c 1010.3 hPa 100% 0.0mm
12/06:30pm NNE 6-7 kts 24.7°c 1010.6 hPa 98% 0.0mm
12/06:00pm N 6-8 kts 24.8°c 1010.8 hPa 97% 0.0mm
12/05:30pm NNE 8-9 kts 25.1°c 1009.8 hPa 96% 0.0mm
12/05:00pm NNE 9-11 kts 25.5°c 1009.4 hPa 95% 0.0mm
12/04:30pm NNE 11-14 kts 26.2°c 1008.5 hPa 91% 0.0mm
12/04:00pm NE 13-14 kts 27.3°c 1008.5 hPa 90% 0.0mm
12/03:30pm NNE 12-14 kts 27.6°c 1009.0 hPa 87% 0.0mm
12/03:00pm NNE 13-16 kts 28.1°c 1009.1 hPa 87% 0.0mm
12/02:30pm NNE 15-17 kts 28.2°c 1009.1 hPa 85% 0.0mm
12/02:00pm NE 14-15 kts 28.2°c 1009.3 hPa 86% 0.0mm
12/01:30pm NE 12-14 kts 28.3°c 1009.5 hPa 86% 0.0mm
12/01:00pm NE 12-14 kts 28.4°c 1009.9 hPa 86% 0.0mm
12/12:30pm NE 14-15 kts 28.0°c 1010.1 hPa 88% 0.0mm
12/12:00pm NE 13-14 kts 26.8°c 1010.5 hPa 89% 0.0mm
12/11:30am ENE 9 kts 27.7°c 1010.8 hPa 87% 0.0mm
12/11:00am ENE 7-8 kts 26.7°c 1011.2 hPa 85% 0.0mm
12/10:30am ENE 9 kts 26.7°c 1011.2 hPa 89% 0.0mm
12/10:00am ENE 6-8 kts 26.1°c 1011.5 hPa 90% 0.0mm
12/09:30am E 8-9 kts 25.6°c 1011.5 hPa 92% 0.0mm
12/09:00am E 8 kts 25.1°c 1011.7 hPa 92% 1.8mm
12/08:30am SE 5-6 kts 25.6°c 1011.7 hPa 85% 1.8mm
12/08:00am ESE 2-6 kts 25.3°c 1011.5 hPa 89% 1.8mm
12/07:30am ENE 4-5 kts 24.1°c 1011.5 hPa 96% 1.8mm
12/07:00am NE 5-6 kts 24.5°c 1011.2 hPa 95% 1.8mm
12/06:30am N 4-5 kts 23.5°c 1011.0 hPa 96% 1.8mm
12/06:00am NW 1-4 kts 22.9°c 1010.6 hPa 97% 1.8mm
12/05:30am CALM 0-3 kts 22.8°c 1010.2 hPa 95% 1.8mm
12/05:00am WNW 9-12 kts 23.1°c 1009.8 hPa 92% 1.8mm
12/04:30am NW 9-13 kts 23.4°c 1009.6 hPa 92% 1.8mm
12/04:00am NW 12-16 kts 23.6°c 1009.2 hPa 92% 1.8mm
12/03:30am NW 8-10 kts 23.5°c 1009.2 hPa 95% 1.8mm
12/03:00am NNW 8-13 kts 23.8°c 1008.7 hPa 95% 1.8mm
12/02:30am NNW 8-14 kts 23.7°c 1008.3 hPa 92% 1.8mm
12/02:00am N 21-29 kts 22.7°c 1008.6 hPa 99% 1.8mm
12/01:45am NNE 25-32 kts 22.7°c 1007.0 hPa 100% 1.8mm
12/01:30am NNE 21-25 kts 22.7°c 1009.0 hPa 100% 1.8mm
12/01:28am NNE 20-24 kts 22.7°c 1009.1 hPa 100% 1.8mm
12/01:00am N 15-18 kts 22.4°c 1011.1 hPa 100% 1.6mm
12/12:30am N 11-14 kts 21.8°c 1012.4 hPa 99% 1.6mm
12/12:00am N 8-12 kts 21.8°c 1013.5 hPa 98% 1.4mm
Time Wind Speed Temp Pressure Rel. Hum Rain
11/11:30pm NNE 5-6 kts 22.5°c 1014.2 hPa 99% 1.4mm
11/11:00pm SE 3-5 kts 22.2°c 1014.7 hPa 98% 1.4mm
11/10:30pm SE 13-17 kts 22.7°c 1015.1 hPa 98% 1.0mm
11/10:20pm SE 12-20 kts 22.9°c 1015.5 hPa 98% 0.2mm
11/10:00pm SSE 8-9 kts 24.4°c 1015.6 hPa 100% 0.0mm
11/09:30pm E 5-7 kts 24.5°c 1015.0 hPa 100% 0.0mm
11/09:00pm NW 3-6 kts 24.3°c 1015.1 hPa 100% 0.0mm
11/08:30pm CALM 0 kts 24.0°c 1013.7 hPa 100% 0.0mm
11/08:00pm N 8-9 kts 24.2°c 1012.9 hPa 100% 0.0mm
11/07:30pm N 9-10 kts 24.3°c 1012.5 hPa 100% 0.0mm
11/07:00pm N 10-13 kts 24.4°c 1011.7 hPa 100% 0.0mm
11/06:30pm N 10-12 kts 24.6°c 1011.5 hPa 99% 0.0mm
11/06:00pm NNE 14-17 kts 25.0°c 1011.4 hPa 97% 0.0mm
11/05:30pm NNE 15-17 kts 25.3°c 1010.6 hPa 97% 0.0mm
11/05:00pm NNE 14-15 kts 25.8°c 1010.2 hPa 95% 0.0mm
11/04:30pm NNE 15-16 kts 26.1°c 1009.4 hPa 94% 0.0mm
11/04:00pm NNE 14-16 kts 26.5°c 1009.8 hPa 93% 0.0mm
11/03:30pm NNE 16-17 kts 26.9°c 1009.9 hPa 90% 0.0mm
11/03:00pm NNE 16-18 kts 28.2°c 1010.0 hPa 85% 0.0mm
11/02:30pm NNE 16-19 kts 28.3°c 1010.4 hPa 84% 0.0mm
11/02:00pm NNE 17-18 kts 28.8°c 1010.8 hPa 83% 0.0mm
11/01:30pm NE 15-17 kts 28.8°c 1010.9 hPa 83% 0.0mm
11/01:00pm NNE 13-15 kts 29.0°c 1011.3 hPa 80% 0.0mm
11/12:30pm NNE 14-15 kts 28.9°c 1011.5 hPa 78% 0.0mm
11/12:00pm NNE 14-15 kts 28.5°c 1011.7 hPa 79% 0.0mm
11/11:30am NNE 13-15 kts 28.8°c 1012.0 hPa 80% 0.0mm
11/11:00am NNE 15-16 kts 28.8°c 1012.2 hPa 81% 0.0mm
11/10:30am NNE 13-15 kts 28.7°c 1012.4 hPa 82% 0.0mm
11/10:00am NNE 13-15 kts 28.4°c 1012.6 hPa 83% 0.0mm
11/09:30am NNE 10-13 kts 27.2°c 1013.1 hPa 86% 0.0mm
11/09:00am N 8-10 kts 26.7°c 1013.4 hPa 89% 0.0mm
11/08:30am NNE 8-9 kts 26.1°c 1013.6 hPa 90% 0.0mm
11/08:00am NNE 8-10 kts 26.1°c 1014.0 hPa 94% 0.0mm
11/07:30am ENE 6-8 kts 25.2°c 1014.2 hPa 94% 0.0mm
11/07:00am E 4-5 kts 24.7°c 1014.3 hPa 96% 0.0mm
11/06:30am SSE 4-5 kts 24.7°c 1014.4 hPa 95% 0.0mm
11/06:00am W 6-8 kts 24.3°c 1014.1 hPa 94% 0.0mm
11/05:30am NW 5 kts 23.9°c 1013.2 hPa 96% 0.0mm
11/05:00am NW 6-7 kts 24.0°c 1012.6 hPa 97% 0.0mm
11/04:30am NNW 7-10 kts 24.2°c 1012.1 hPa 98% 0.0mm
11/04:00am NNW 8-11 kts 24.5°c 1011.8 hPa 97% 0.0mm
11/03:30am NW 9-13 kts 24.6°c 1011.8 hPa 97% 0.0mm
11/03:00am WNW 6-8 kts 24.6°c 1011.9 hPa 97% 0.0mm
11/02:30am NW 9-12 kts 24.8°c 1011.5 hPa 97% 0.0mm
11/02:00am NW 9-14 kts 24.6°c 1011.6 hPa 97% 0.0mm
11/01:30am N 17-24 kts 24.0°c 1011.1 hPa 100% 0.0mm
11/01:00am N 17-19 kts 24.1°c 1011.2 hPa 100% 0.0mm
11/12:30am N 15-18 kts 24.3°c 1012.5 hPa 99% 0.0mm
11/12:00am N 10-12 kts 24.3°c 1014.1 hPa 99% 0.0mm
Time Wind Speed Temp Pressure Rel. Hum Rain
10/11:30pm N 7-9 kts 24.5°c 1015.1 hPa 96% 0.0mm
10/11:00pm N 8-10 kts 24.8°c 1015.3 hPa 93% 0.0mm
10/10:30pm N 4-6 kts 25.0°c 1016.0 hPa 89% 0.0mm
10/10:00pm SSW 7-13 kts 24.8°c 1017.3 hPa 91% 0.0mm
10/09:30pm NNW 6-7 kts 24.2°c 1015.6 hPa 92% 0.0mm
10/09:00pm N 5-7 kts 24.1°c 1014.8 hPa 95% 0.0mm
10/08:30pm N 7-9 kts 24.3°c 1014.7 hPa 98% 0.0mm
10/08:00pm N 8-10 kts 24.4°c 1014.2 hPa 97% 0.0mm
10/07:30pm N 10-11 kts 24.6°c 1013.8 hPa 96% 0.0mm
10/07:00pm N 10-12 kts 24.7°c 1013.9 hPa 94% 0.0mm
10/06:30pm N 13-15 kts 25.0°c 1013.5 hPa 92% 0.0mm
10/06:00pm N 15-17 kts 25.2°c 1013.1 hPa 91% 0.0mm
10/05:30pm N 16-18 kts 25.7°c 1012.9 hPa 90% 0.0mm
10/05:00pm N 16-18 kts 26.1°c 1012.6 hPa 88% 0.0mm
10/04:30pm NNE 17-20 kts 26.5°c 1012.4 hPa 85% 0.0mm
10/04:00pm NNE 18-20 kts 26.6°c 1012.5 hPa 83% 0.0mm
10/03:30pm NNE 18-21 kts 27.5°c 1012.8 hPa 83% 0.0mm
10/03:00pm NNE 17-21 kts 27.8°c 1013.2 hPa 83% 0.0mm
10/02:30pm NNE 18-20 kts 28.3°c 1013.5 hPa 80% 0.0mm
10/02:00pm NNE 17-20 kts 28.8°c 1013.8 hPa 80% 0.0mm
10/01:30pm NNE 18-20 kts 28.9°c 1014.2 hPa 81% 0.0mm
10/01:00pm NNE 17-19 kts 29.1°c 1014.7 hPa 82% 0.0mm
10/12:30pm NNE 17-19 kts 28.7°c 1015.1 hPa 82% 0.0mm
10/12:00pm NE 16-18 kts 28.9°c 1015.6 hPa 84% 0.0mm
10/11:30am NE 14-16 kts 28.0°c 1015.9 hPa 87% 0.0mm
10/11:00am NE 13-16 kts 28.7°c 1016.5 hPa 85% 0.0mm
10/10:30am NNW 8-14 kts 30.0°c 1017.0 hPa 71% 0.0mm
10/10:00am NNW 9-13 kts 28.8°c 1017.3 hPa 76% 0.0mm
10/09:30am NW 10-12 kts 27.7°c 1017.6 hPa 76% 0.0mm
10/09:00am NNW 9-15 kts 27.6°c 1017.6 hPa 78% 0.0mm
10/08:30am NNW 8-14 kts 27.1°c 1017.8 hPa 81% 0.0mm
10/08:00am N 7-9 kts 26.1°c 1017.8 hPa 89% 0.0mm
10/07:30am N 6-8 kts 25.4°c 1017.9 hPa 92% 0.0mm
10/07:00am WNW 1-3 kts 24.5°c 1017.9 hPa 95% 0.0mm
10/06:30am WNW 2-4 kts 23.6°c 1017.9 hPa 100% 0.0mm
10/06:00am CALM 0 kts 23.1°c 1017.9 hPa 100% 0.0mm
10/05:30am CALM 0 kts 22.3°c 1017.7 hPa 100% 0.0mm
10/05:00am WNW 3-4 kts 21.5°c 1017.6 hPa 100% 0.0mm
10/04:30am WNW 2-4 kts 21.4°c 1017.5 hPa 100% 0.0mm
10/04:00am CALM 0 kts 21.6°c 1017.4 hPa 100% 0.0mm
10/03:30am CALM 0 kts 21.5°c 1017.3 hPa 99% 0.0mm
10/03:00am NNW 1-3 kts 21.6°c 1017.2 hPa 100% 0.0mm
10/02:30am NNW 1-4 kts 22.1°c 1017.2 hPa 100% 0.0mm
10/02:00am CALM 0 kts 22.2°c 1017.4 hPa 100% 0.0mm
10/01:30am CALM 0 kts 22.7°c 1017.6 hPa 100% 0.0mm
10/01:00am CALM 0 kts 22.1°c 1017.9 hPa 100% 0.0mm
10/12:30am CALM 0 kts 22.7°c 1018.2 hPa 100% 0.0mm
10/12:00am CALM 0 kts 23.3°c 1018.5 hPa 100% 0.0mm